Hourly Data Report for October 26, 2015

All times are specified in Local Standard Time (LST). Add 1 hour to adjust for Daylight Saving Time where and when it is observed.

MONCTON INTL A
NEW BRUNSWICK

46°06'44.000" N
64°40'43.000" W
70.70 m
8103201
71705
YQM

Download Data

Hourly Data (October 2015)
Hourly Data Report for October 26, 2015
Temp Definition
°C
Dew Point Temp Definition
°C
Rel Hum Definition
%
Wind Dir Definition
10's deg

Wind Spd Definition
km/h
Visibility Definition
km
Stn Press Definition
kPa
Hmdx Definition


Wind Chill Definition


Weather Definition


TIME
00:00 Legend Double Dagger 8.4 5.9 84 30 26 24.1 100.63     LegendNANA
01:00 Legend Double Dagger 6.9 3.5 79 28 24 24.1 100.78     LegendNANA
02:00 Legend Double Dagger 5.0 1.5 78 30 16 24.1 100.88     Mainly Clear
03:00 Legend Double Dagger 3.6 -0.1 77 30 13 24.1 100.95     LegendNANA
04:00 Legend Double Dagger 3.0 -0.5 78 30 18 24.1 101.02     LegendNANA
05:00 Legend Double Dagger 2.2 -0.9 80 30 15 24.1 101.14     Clear
06:00 Legend Double Dagger 1.5 -1.4 81 30 16 24.1 101.22     LegendNANA
07:00 Legend Double Dagger 1.1 -2.0 80 29 13 24.1 101.33     LegendNANA
08:00 Legend Double Dagger 1.9 -2.3 74 31 17 24.1 101.43     Mainly Clear
09:00 Legend Double Dagger 3.2 -1.9 69 31 21 24.1 101.52     LegendNANA
10:00 Legend Double Dagger 4.2 -2.4 62 32 18 24.1 101.57     LegendNANA
11:00 Legend Double Dagger 3.9 -3.4 59 31 17 24.1 101.61     Mostly Cloudy
12:00 Legend Double Dagger 5.6 -3.2 53 31 21 24.1 101.59     LegendNANA
13:00 Legend Double Dagger 4.9 -3.9 53 34 23 24.1 101.60     LegendNANA
14:00 Legend Double Dagger 5.9 -4.8 46 29 22 24.1 101.61     Mainly Clear
15:00 Legend Double Dagger 4.9 -5.5 47 29 22 24.1 101.65     LegendNANA
16:00 Legend Double Dagger 5.3 -4.8 48 29 14 24.1 101.70     LegendNANA
17:00 Legend Double Dagger 3.8 -5.7 50 30 14 24.1 101.79     Mainly Clear
18:00 Legend Double Dagger 1.4 -6.0 58 29 13 24.1 101.86     LegendNANA
19:00 Legend Double Dagger 0.5 -6.6 59 30 13 24.1 101.96     LegendNANA
20:00 Legend Double Dagger -0.1 -7.2 59 28 14 24.1 102.02   -4 Clear
21:00 Legend Double Dagger -0.2 -7.7 57 29 18 24.1 102.09   -5 LegendNANA
22:00 Legend Double Dagger -0.8 -7.8 59 30 16 24.1 102.15   -6 LegendNANA
23:00 Legend Double Dagger -1.7 -8.1 62 27 10 24.1 102.20   -5 Clear

Notes on Data Quality.

Legend

  • E = Estimated
  • M = Missing
  • NA = Not Available
  • ‡ = Partner data that is not subject to review by the National Climate Archives
Date modified: